Погода в Лескене

Россия / Республика Северная Осетия — Алания     43°16′34″N   43°49′21″E
темп.,
°C
ветер,
м/с
пор.,
м/с
влажн.,
%
обл.,
%
осадки,
мм/ч
давл.,
гПа
погр.,
м
18 апреля, вс
вс1800:00+7всв1196100 0.0 1022180
03:00+7св1297100 0.0 1021130
06:00+7в1196100 0.1 102087
09:00+11ссв217793 0.1 1017425
12:00+15св326782 0.1 1016908
15:00+14ссв337581 1.1 1016498
18:00+13ююв128689 2.3 101634
21:00+10з1191100 2.3 101718
19 апреля, пн
пн1900:00+10юз1187100 0.0 101622
03:00+10ююз1185100 0.0 101617
06:00+10юз227546 0.0 101619
09:00+15всв217137 0.0 1016546
12:00+18св325998 0.1 10151219
15:00+18всв226387 0.4 1014933
18:00+16с237596 0.1 1014106
21:00+13ю0079100 0.1 101519
20 апреля, вт
вт2000:00+12юз227399 0.0 101325
03:00+11ююз0175100 0.0 101222
06:00+12ююв1174100 0.0 101117
09:00+20юв2447100 0.0 1007343
12:00+26ю4630100 0.0 10041550
15:00+25юз4532100 0.0 10041113
18:00+19з4954100 0.1 1007255
21:00+14ююз487095 2.6 1009178
21 апреля, ср
ср2100:00+13ссз1494100 0.1 1011336
03:00+10св248894 2.6 1014336
06:00+9в018383 0.1 1017135
09:00+10в247296 0.1 1018760
12:00+10в3476100 0.1 1019808
15:00+8в2486100 0.3 1020590
18:00+8в2497100 0.6 1021541
21:00+7вюв1396100 1.4 1023391
22 апреля, чт
чт2200:00+7вюв1395100 0.1 1023358
03:00+7юв0194100 0.1 102371
06:00+6ю1194100 0.0 1023102
09:00+8в1283100 0.1 1022512
12:00+8в2282100 0.4 1022641
15:00+8св2292100 0.6 1022360
18:00+7св1196100 0.4 1022205
21:00+7ююз0198100 3.5 1023102